DAL2462 KVPS-KMSP

Flight info

Callsign DAL2462
Flight time N/A
Altitude 32000
Route CORKY ENNTT HITMN LAJUG J45 STL MNOSO BLUEM5
Aircraft A320/M-SDE3FGHIRWY/LB1

Departure

Time 2026-04-20 17:09
Airport Destin-Fort Walton Beach Airport (KVPS)

Arrival

Time N/A
Airport Minneapolis–Saint Paul International Airport / Wold–Chamberlain Field (KMSP)
Time Latitude Longitude Altitude Speed Heading
2026-04-20 16:58 30.49435 -86.54914 87 ft 0 kts 335°
2026-04-20 17:00 30.49430 -86.54911 87 ft 2 kts 335°
2026-04-20 17:00 30.49416 -86.54903 87 ft 2 kts 334°
2026-04-20 17:00 30.49407 -86.54899 87 ft 2 kts 335°
2026-04-20 17:01 30.49396 -86.54888 87 ft 2 kts 299°
2026-04-20 17:01 30.49391 -86.54871 87 ft 2 kts 270°
2026-04-20 17:01 30.49394 -86.54854 87 ft 2 kts 241°
2026-04-20 17:01 30.49404 -86.54840 87 ft 2 kts 213°
2026-04-20 17:02 30.49416 -86.54834 87 ft 0 kts 186°
2026-04-20 17:02 30.49423 -86.54834 87 ft 1 kts 180°
2026-04-20 17:02 30.49425 -86.54834 87 ft 0 kts 181°
2026-04-20 17:06 30.49386 -86.54836 87 ft 9 kts 182°
2026-04-20 17:07 30.49326 -86.54843 87 ft 8 kts 212°
2026-04-20 17:07 30.49318 -86.54914 87 ft 10 kts 271°
2026-04-20 17:07 30.49304 -86.54974 87 ft 8 kts 211°
2026-04-20 17:07 30.49238 -86.54983 87 ft 10 kts 185°
2026-04-20 17:08 30.49159 -86.55014 87 ft 13 kts 208°
2026-04-20 17:08 30.49070 -86.55074 87 ft 15 kts 209°
2026-04-20 17:08 30.48971 -86.55138 87 ft 17 kts 210°
2026-04-20 17:08 30.48873 -86.55192 87 ft 12 kts 166°
2026-04-20 17:09 30.48800 -86.55057 86 ft 46 kts 121°
2026-04-20 17:09 30.48504 -86.54459 86 ft 121 kts 118°
2026-04-20 17:09 30.47982 -86.53418 212 ft 167 kts 116°
2026-04-20 17:09 30.47388 -86.52254 955 ft 168 kts 116°
2026-04-20 17:10 30.46809 -86.51142 1856 ft 163 kts 114°
2026-04-20 17:10 30.46223 -86.50011 2508 ft 170 kts 114°
2026-04-20 17:10 30.45746 -86.48708 2943 ft 183 kts 90°
2026-04-20 17:10 30.46056 -86.47302 3467 ft 193 kts 54°
2026-04-20 17:11 30.47155 -86.46321 3938 ft 215 kts 20°
2026-04-20 17:11 30.48703 -86.46144 4557 ft 235 kts
2026-04-20 17:11 30.50404 -86.46313 5185 ft 252 kts 356°
2026-04-20 17:11 30.52164 -86.46538 6068 ft 257 kts 355°
2026-04-20 17:12 30.53930 -86.46754 7002 ft 259 kts 355°
2026-04-20 17:12 30.55713 -86.46946 7908 ft 261 kts 355°
2026-04-20 17:12 30.57519 -86.47077 8783 ft 264 kts
2026-04-20 17:12 30.59343 -86.46890 9647 ft 267 kts
2026-04-20 17:13 30.61181 -86.46593 10429 ft 271 kts
2026-04-20 17:13 30.63120 -86.46285 10915 ft 288 kts
2026-04-20 17:13 30.65164 -86.45977 11311 ft 305 kts
2026-04-20 17:13 30.67343 -86.45666 11666 ft 323 kts
2026-04-20 17:14 30.69641 -86.45345 12057 ft 339 kts
2026-04-20 17:14 30.71999 -86.45018 12731 ft 344 kts
2026-04-20 17:14 30.74370 -86.44688 13504 ft 346 kts
2026-04-20 17:14 30.76769 -86.44358 14185 ft 351 kts
2026-04-20 17:15 30.79232 -86.44024 14847 ft 356 kts